Location: Iowa City
(41.6610°N, 91.5300°W)
Time: 19:20:08
(UTC-05:00)

ISS - Visible Passes

Search period start: 24 July 2016 00:00
Search period end: 03 August 2016 00:00
Orbit: 401 x 404 km, 51.6° (Epoch: 24 July)

Date Brightness Start Highest point End Pass type
(mag) Time Alt. Az. Time Alt. Az. Time Alt. Az.
24 Jul -0.1 00:48:33 12° NNE 00:48:33 12° NNE 00:48:55 10° NE visible
24 Jul -0.1 02:21:36 10° NW 02:23:28 14° N 02:25:19 10° NE visible
24 Jul -0.7 03:58:08 10° NW 04:00:47 22° NNE 04:03:26 10° ENE visible
25 Jul -0.2 01:29:43 15° NNW 01:30:14 15° N 01:32:14 10° NNE visible
25 Jul -0.3 03:05:19 10° NNW 03:07:37 18° NNE 03:09:55 10° ENE visible
25 Jul -2.8 04:41:20 10° NW 04:44:33 61° NNE 04:47:47 10° ESE visible
25 Jul -1.7 21:21:58 10° S 21:24:00 16° SE 21:25:57 10° E visible
25 Jul -2.2 22:56:53 10° WSW 23:05:23 - NE 22:59:03 37° W visible
26 Jul -0.3 00:37:54 16° N 00:37:54 16° N 00:39:20 10° NNE visible
26 Jul -0.1 02:12:25 10° NNW 02:14:25 15° N 02:16:26 10° NE visible
26 Jul -1.7 03:48:30 10° NW 03:51:34 35° NNE 03:54:36 10° E visible
26 Jul -3.5 22:03:56 10° SW 22:07:10 71° SE 22:10:25 10° ENE visible
26 Jul -0.8 23:41:14 10° WNW 23:43:53 22° NNW 23:46:31 10° NE visible
27 Jul -0.1 01:19:20 10° NW 01:21:11 14° N 01:23:03 10° NE visible
27 Jul -0.9 02:55:44 10° NW 02:58:28 24° NNE 03:01:13 10° ENE visible
27 Jul -3.4 04:31:54 10° WNW 04:35:06 58° SW 04:38:19 10° SE visible
27 Jul -2.7 21:11:19 10° SSW 21:14:19 35° SE 21:17:21 10° ENE visible
27 Jul -1.4 22:47:48 10° W 22:50:46 31° NNW 22:53:44 10° NE visible
28 Jul -0.1 00:26:01 10° NW 00:27:57 15° N 00:29:54 10° NNE visible
28 Jul0.102:08:09ENE02:08:09ENE02:02:37NWvisible
28 Jul -3.2 03:41:17 43° NW 03:42:12 72° NE 03:45:27 10° ESE visible
28 Jul -1.5 05:16:40 10° W 05:18:14 13° SW 05:19:48 10° SSW visible
28 Jul -2.4 21:54:33 10° WSW 21:57:44 51° NNW 22:00:56 10° NE visible
28 Jul -0.3 23:32:32 10° NW 23:34:44 17° NNW 23:36:56 10° NNE visible
29 Jul 0.0 01:10:03 10° NNW 01:10:47 13° NNW 01:10:47 13° NNW visible
29 Jul -3.4 21:01:31 10° SW 21:04:47 86° SE 21:08:03 10° NE visible
29 Jul -0.6 22:38:59 10° WNW 22:41:33 21° NNW 22:44:06 10° NE visible
30 Jul -0.2 00:17:01 10° NNW 00:18:53 14° N 00:19:20 14° NNE visible
30 Jul -1.2 21:45:32 10° W 21:48:25 28° NNW 21:51:19 10° NE visible
30 Jul -0.2 23:23:45 10° NW 23:25:38 14° N 23:27:33 10° NNE visible
31 Jul 0.1 01:00:30 10° NNW 01:00:34 10° NNW 01:00:34 10° NNW visible
31 Jul -2.0 20:52:13 10° WSW 20:55:21 44° NNW 20:58:30 10° NE visible
31 Jul -0.3 22:30:17 10° NW 22:32:24 16° N 22:34:31 10° NNE visible
01 Aug -0.3 00:07:39 10° NNW 00:09:15 16° N 00:09:15 16° N visible
01 Aug -0.6 21:36:45 10° WNW 21:39:12 19° NNW 21:41:39 10° NNE visible
01 Aug -0.4 23:14:39 10° NNW 23:16:33 14° N 23:17:57 12° NNE visible
02 Aug -0.4 22:21:26 10° NW 22:23:18 14° N 22:25:10 10° NNE visible
